Time,TemperatureF,DewpointF,PressureIn,WindDirection,WindDirectionDegrees,WindSpeedMPH,WindSpeedGustMPH,Humidity,HourlyPrecipIn,Conditions,Clouds,dailyrainin,SoftwareType,DateUTC
2013-03-18 00:00:00,39.8,38.2,30.16,NE,44,0.0,1.0,94,0.00,,,0.00,Wunderground v.1.15,2013-03-18 04:00:00,
2013-03-18 00:02:00,39.8,38.2,30.16,NE,44,0.0,1.0,94,0.00,,,0.00,Wunderground v.1.15,2013-03-18 04:02:00,
2013-03-18 00:08:00,39.7,38.1,30.16,NNE,32,0.0,4.0,94,0.00,,,0.00,Wunderground v.1.15,2013-03-18 04:08:00,
2013-03-18 00:14:00,39.6,38.3,30.17,ENE,61,1.0,4.0,95,0.00,,,0.00,Wunderground v.1.15,2013-03-18 04:14:00,
2013-03-18 00:20:00,39.5,38.2,30.16,ENE,61,1.0,1.0,95,0.00,,,0.00,Wunderground v.1.15,2013-03-18 04:20:00,
2013-03-18 00:26:00,39.5,38.2,30.16,NNE,21,1.0,1.0,95,0.00,,,0.00,Wunderground v.1.15,2013-03-18 04:26:00,
2013-03-18 00:32:00,39.5,38.2,30.16,NNE,21,0.0,0.0,95,0.00,,,0.00,Wunderground v.1.15,2013-03-18 04:32:00,
2013-03-18 00:38:00,39.5,38.5,30.16,North,360,1.0,1.0,96,0.00,,,0.00,Wunderground v.1.15,2013-03-18 04:38:00,
2013-03-18 00:44:00,39.5,38.5,30.15,NNE,19,1.0,2.0,96,0.00,,,0.00,Wunderground v.1.15,2013-03-18 04:44:00,
2013-03-18 00:50:00,39.5,38.5,30.15,North,9,0.0,3.0,96,0.00,,,0.00,Wunderground v.1.15,2013-03-18 04:50:00,
2013-03-18 00:56:00,39.4,38.4,30.15,ENE,71,1.0,3.0,96,0.00,,,0.00,Wunderground v.1.15,2013-03-18 04:56:00,
2013-03-18 01:02:00,39.3,38.3,30.15,NNW,341,1.0,1.0,96,0.00,,,0.00,Wunderground v.1.15,2013-03-18 05:02:00,
2013-03-18 01:08:00,39.3,38.3,30.15,NE,51,0.0,1.0,96,0.00,,,0.00,Wunderground v.1.15,2013-03-18 05:08:00,
2013-03-18 01:14:00,39.2,38.2,30.15,East,82,0.0,1.0,96,0.00,,,0.00,Wunderground v.1.15,2013-03-18 05:14:00,
2013-03-18 01:20:00,39.3,38.3,30.15,North,350,0.0,1.0,96,0.00,,,0.00,Wunderground v.1.15,2013-03-18 05:20:00,
2013-03-18 01:26:00,39.1,38.1,30.15,ESE,116,1.0,2.0,96,0.00,,,0.00,Wunderground v.1.15,2013-03-18 05:26:00,
2013-03-18 01:32:00,39.1,38.1,30.15,ENE,78,1.0,1.0,96,0.00,,,0.00,Wunderground v.1.15,2013-03-18 05:32:00,
2013-03-18 01:38:00,39.1,38.1,30.15,NNE,19,1.0,2.0,96,0.00,,,0.00,Wunderground v.1.15,2013-03-18 05:38:00,
2013-03-18 01:44:00,39.1,38.1,30.15,NNE,19,1.0,1.0,96,0.00,,,0.00,Wunderground v.1.15,2013-03-18 05:44:00,
2013-03-18 01:50:00,39.1,38.1,30.15,NNW,348,1.0,3.0,96,0.00,,,0.00,Wunderground v.1.15,2013-03-18 05:50:00,
2013-03-18 01:56:00,39.2,38.2,30.15,NE,36,1.0,4.0,96,0.00,,,0.00,Wunderground v.1.15,2013-03-18 05:56:00,
2013-03-18 02:02:00,39.1,38.1,30.15,NNE,32,1.0,1.0,96,0.00,,,0.00,Wunderground v.1.15,2013-03-18 06:02:00,
2013-03-18 02:08:00,39.1,38.1,30.15,NE,42,0.0,1.0,96,0.00,,,0.00,Wunderground v.1.15,2013-03-18 06:08:00,
2013-03-18 02:14:00,39.1,38.1,30.15,NE,51,0.0,1.0,96,0.00,,,0.00,Wunderground v.1.15,2013-03-18 06:14:00,
2013-03-18 02:20:00,39.1,38.1,30.14,NE,51,0.0,0.0,96,0.00,,,0.00,Wunderground v.1.15,2013-03-18 06:20:00,
2013-03-18 02:26:00,39.1,38.1,30.14,NNE,13,0.0,2.0,96,0.00,,,0.00,Wunderground v.1.15,2013-03-18 06:26:00,
2013-03-18 02:32:00,39.2,38.2,30.15,NE,35,0.0,0.0,96,0.00,,,0.00,Wunderground v.1.15,2013-03-18 06:32:00,
2013-03-18 02:38:00,39.1,38.1,30.15,NNE,29,0.0,1.0,96,0.00,,,0.00,Wunderground v.1.15,2013-03-18 06:38:00,
2013-03-18 02:44:00,39.1,38.1,30.15,ENE,72,1.0,1.0,96,0.00,,,0.00,Wunderground v.1.15,2013-03-18 06:44:00,
2013-03-18 02:50:00,39.2,38.2,30.15,NE,50,0.0,0.0,96,0.00,,,0.00,Wunderground v.1.15,2013-03-18 06:50:00,
2013-03-18 02:56:00,39.2,38.4,30.15,NNE,20,0.0,1.0,97,0.00,,,0.00,Wunderground v.1.15,2013-03-18 06:56:00,
2013-03-18 03:02:00,39.2,38.4,30.15,East,85,1.0,1.0,97,0.00,,,0.00,Wunderground v.1.15,2013-03-18 07:02:00,
2013-03-18 03:08:00,39.1,38.3,30.15,NW,309,1.0,1.0,97,0.00,,,0.00,Wunderground v.1.15,2013-03-18 07:08:00,
2013-03-18 03:14:00,39.1,38.3,30.15,NE,40,0.0,2.0,97,0.00,,,0.00,Wunderground v.1.15,2013-03-18 07:14:00,
2013-03-18 03:20:00,39.1,38.3,30.15,NE,55,1.0,1.0,97,0.00,,,0.00,Wunderground v.1.15,2013-03-18 07:20:00,
2013-03-18 03:26:00,39.0,38.2,30.15,NE,55,0.0,2.0,97,0.00,,,0.00,Wunderground v.1.15,2013-03-18 07:26:00,
2013-03-18 03:32:00,39.0,38.2,30.14,NE,50,1.0,1.0,97,0.00,,,0.00,Wunderground v.1.15,2013-03-18 07:32:00,
2013-03-18 03:38:00,39.0,38.2,30.15,NE,49,1.0,1.0,97,0.00,,,0.00,Wunderground v.1.15,2013-03-18 07:38:00,
2013-03-18 03:44:00,38.9,38.1,30.15,NE,47,1.0,1.0,97,0.00,,,0.00,Wunderground v.1.15,2013-03-18 07:44:00,
2013-03-18 03:50:00,38.8,38.0,30.14,NE,44,1.0,1.0,97,0.00,,,0.00,Wunderground v.1.15,2013-03-18 07:50:00,
2013-03-18 03:56:00,38.8,38.0,30.14,NNE,30,1.0,1.0,97,0.00,,,0.01,Wunderground v.1.15,2013-03-18 07:56:00,
2013-03-18 04:02:00,38.8,38.0,30.14,NNE,30,1.0,2.0,97,0.00,,,0.01,Wunderground v.1.15,2013-03-18 08:02:00,
2013-03-18 04:08:00,38.7,37.9,30.14,ENE,57,0.0,2.0,97,0.00,,,0.01,Wunderground v.1.15,2013-03-18 08:08:00,
2013-03-18 04:14:00,38.6,37.8,30.14,ENE,66,1.0,1.0,97,0.00,,,0.01,Wunderground v.1.15,2013-03-18 08:14:00,
2013-03-18 04:20:00,38.4,37.6,30.13,East,92,1.0,1.0,97,0.00,,,0.01,Wunderground v.1.15,2013-03-18 08:20:00,
2013-03-18 04:26:00,38.3,37.5,30.13,NE,52,1.0,1.0,97,0.00,,,0.01,Wunderground v.1.15,2013-03-18 08:26:00,
2013-03-18 04:32:00,38.3,37.5,30.13,East,88,1.0,2.0,97,0.00,,,0.01,Wunderground v.1.15,2013-03-18 08:32:00,
2013-03-18 04:38:00,38.2,37.4,30.13,ESE,111,1.0,2.0,97,0.00,,,0.01,Wunderground v.1.15,2013-03-18 08:38:00,
2013-03-18 04:44:00,38.1,37.3,30.13,NE,43,1.0,1.0,97,0.00,,,0.01,Wunderground v.1.15,2013-03-18 08:44:00,
2013-03-18 04:50:00,38.2,37.4,30.14,NE,43,1.0,1.0,97,0.00,,,0.01,Wunderground v.1.15,2013-03-18 08:50:00,
2013-03-18 04:56:00,38.2,37.4,30.14,North,9,1.0,2.0,97,0.00,,,0.01,Wunderground v.1.15,2013-03-18 08:56:00,
2013-03-18 05:02:00,38.2,37.4,30.14,ENE,74,1.0,3.0,97,0.00,,,0.01,Wunderground v.1.15,2013-03-18 09:02:00,
2013-03-18 05:08:00,38.1,37.3,30.14,NW,305,1.0,3.0,97,0.00,,,0.01,Wunderground v.1.15,2013-03-18 09:08:00,
2013-03-18 05:14:00,38.1,37.3,30.15,North,9,1.0,1.0,97,0.00,,,0.01,Wunderground v.1.15,2013-03-18 09:14:00,
2013-03-18 05:20:00,38.2,37.4,30.15,NNE,19,0.0,1.0,97,0.00,,,0.01,Wunderground v.1.15,2013-03-18 09:20:00,
2013-03-18 05:26:00,38.1,37.3,30.15,NNW,336,0.0,1.0,97,0.00,,,0.01,Wunderground v.1.15,2013-03-18 09:26:00,
2013-03-18 05:32:00,38.0,37.2,30.15,SE,133,1.0,1.0,97,0.00,,,0.01,Wunderground v.1.15,2013-03-18 09:32:00,
2013-03-18 05:38:00,38.0,37.2,30.16,North,355,1.0,2.0,97,0.00,,,0.01,Wunderground v.1.15,2013-03-18 09:38:00,
2013-03-18 05:44:00,37.9,37.1,30.16,NNE,29,1.0,1.0,97,0.00,,,0.01,Wunderground v.1.15,2013-03-18 09:44:00,
2013-03-18 05:50:00,37.9,37.1,30.16,NE,35,2.0,2.0,97,0.00,,,0.01,Wunderground v.1.15,2013-03-18 09:50:00,
2013-03-18 05:56:00,37.9,37.1,30.16,ENE,63,1.0,2.0,97,0.00,,,0.01,Wunderground v.1.15,2013-03-18 09:56:00,
2013-03-18 06:02:00,37.9,37.1,30.16,NE,42,1.0,2.0,97,0.00,,,0.01,Wunderground v.1.15,2013-03-18 10:02:00,
2013-03-18 06:08:00,37.9,37.1,30.17,NE,42,1.0,2.0,97,0.00,,,0.01,Wunderground v.1.15,2013-03-18 10:08:00,
2013-03-18 06:14:00,37.9,37.1,30.17,NE,42,0.0,0.0,97,0.00,,,0.01,Wunderground v.1.15,2013-03-18 10:14:00,
2013-03-18 06:20:00,38.0,37.2,30.17,NNE,21,0.0,1.0,97,0.00,,,0.01,Wunderground v.1.15,2013-03-18 10:20:00,
2013-03-18 06:26:00,37.9,37.1,30.17,NNE,21,1.0,1.0,97,0.00,,,0.02,Wunderground v.1.15,2013-03-18 10:26:00,
2013-03-18 06:32:00,38.0,37.2,30.17,NNW,343,0.0,2.0,97,0.00,,,0.02,Wunderground v.1.15,2013-03-18 10:32:00,
2013-03-18 06:38:00,38.0,37.2,30.17,NNW,343,0.0,2.0,97,0.00,,,0.02,Wunderground v.1.15,2013-03-18 10:38:00,
2013-03-18 06:44:00,38.0,37.2,30.17,North,351,0.0,1.0,97,0.00,,,0.02,Wunderground v.1.15,2013-03-18 10:44:00,
2013-03-18 06:50:00,38.0,37.2,30.17,North,355,0.0,2.0,97,0.00,,,0.02,Wunderground v.1.15,2013-03-18 10:50:00,
2013-03-18 06:56:00,38.0,37.2,30.17,NNE,22,0.0,2.0,97,0.00,,,0.02,Wunderground v.1.15,2013-03-18 10:56:00,
2013-03-18 07:02:00,38.0,37.2,30.17,NNE,22,0.0,1.0,97,0.00,,,0.02,Wunderground v.1.15,2013-03-18 11:02:00,
2013-03-18 07:08:00,37.9,37.1,30.17,NNE,19,1.0,1.0,97,0.00,,,0.02,Wunderground v.1.15,2013-03-18 11:08:00,
2013-03-18 07:14:00,37.9,37.1,30.17,NNW,341,1.0,1.0,97,0.00,,,0.02,Wunderground v.1.15,2013-03-18 11:14:00,
2013-03-18 07:20:00,37.9,37.1,30.18,NNE,22,0.0,2.0,97,0.00,,,0.02,Wunderground v.1.15,2013-03-18 11:20:00,
2013-03-18 07:28:00,37.8,37.0,30.18,NNE,23,1.0,2.0,97,0.00,,,0.02,Wunderground v.1.15,2013-03-18 11:28:00,
2013-03-18 07:34:00,37.7,36.9,30.18,NNE,32,1.0,1.0,97,0.00,,,0.02,Wunderground v.1.15,2013-03-18 11:34:00,
2013-03-18 07:40:00,37.7,36.9,30.18,NNE,32,0.0,0.0,97,0.00,,,0.02,Wunderground v.1.15,2013-03-18 11:40:00,
2013-03-18 07:46:00,37.7,36.9,30.18,East,88,0.0,0.0,97,0.00,,,0.02,Wunderground v.1.15,2013-03-18 11:46:00,
2013-03-18 07:52:00,37.6,36.8,30.18,NE,53,1.0,1.0,97,0.00,,,0.02,Wunderground v.1.15,2013-03-18 11:52:00,
2013-03-18 07:58:00,37.5,36.7,30.17,ENE,63,1.0,1.0,97,0.00,,,0.02,Wunderground v.1.15,2013-03-18 11:58:00,
2013-03-18 08:12:00,37.5,36.7,30.18,NNE,27,1.0,2.0,97,0.00,,,0.02,Wunderground v.1.15,2013-03-18 12:12:00,
2013-03-18 08:18:00,37.6,36.8,30.18,NE,35,1.0,2.0,97,0.00,,,0.02,Wunderground v.1.15,2013-03-18 12:18:00,
2013-03-18 08:24:00,37.6,36.8,30.18,NNE,32,1.0,1.0,97,0.00,,,0.02,Wunderground v.1.15,2013-03-18 12:24:00,
2013-03-18 08:30:00,37.6,36.8,30.18,NNE,32,0.0,0.0,97,0.00,,,0.02,Wunderground v.1.15,2013-03-18 12:30:00,
2013-03-18 08:36:00,37.5,36.7,30.17,ENE,59,0.0,1.0,97,0.00,,,0.02,Wunderground v.1.15,2013-03-18 12:36:00,
2013-03-18 08:42:00,37.5,36.7,30.17,ENE,65,1.0,1.0,97,0.00,,,0.02,Wunderground v.1.15,2013-03-18 12:42:00,
2013-03-18 08:48:00,37.5,36.7,30.17,NE,55,1.0,3.0,97,0.00,,,0.02,Wunderground v.1.15,2013-03-18 12:48:00,
2013-03-18 08:54:00,37.6,36.8,30.18,NNE,26,1.0,2.0,97,0.00,,,0.02,Wunderground v.1.15,2013-03-18 12:54:00,
2013-03-18 09:00:00,37.6,36.8,30.18,West,280,1.0,2.0,97,0.00,,,0.02,Wunderground v.1.15,2013-03-18 13:00:00,
2013-03-18 09:06:00,37.6,36.8,30.18,ENE,59,2.0,6.0,97,0.00,,,0.02,Wunderground v.1.15,2013-03-18 13:06:00,
2013-03-18 09:12:00,37.6,36.8,30.18,NNE,33,2.0,2.0,97,0.00,,,0.02,Wunderground v.1.15,2013-03-18 13:12:00,
2013-03-18 09:18:00,37.6,36.8,30.18,NNE,33,1.0,2.0,97,0.00,,,0.02,Wunderground v.1.15,2013-03-18 13:18:00,
2013-03-18 09:24:00,37.7,36.9,30.18,North,5,1.0,2.0,97,0.00,,,0.02,Wunderground v.1.15,2013-03-18 13:24:00,
2013-03-18 09:30:00,37.7,36.9,30.17,NE,54,2.0,2.0,97,0.00,,,0.02,Wunderground v.1.15,2013-03-18 13:30:00,
2013-03-18 09:36:00,37.8,37.0,30.18,North,360,2.0,2.0,97,0.00,,,0.02,Wunderground v.1.15,2013-03-18 13:36:00,
2013-03-18 09:42:00,37.8,37.0,30.18,North,360,1.0,1.0,97,0.00,,,0.02,Wunderground v.1.15,2013-03-18 13:42:00,
2013-03-18 09:48:00,37.8,37.0,30.18,NNE,30,1.0,1.0,97,0.00,,,0.02,Wunderground v.1.15,2013-03-18 13:48:00,
2013-03-18 09:54:00,37.9,37.1,30.18,NNE,30,1.0,1.0,97,0.00,,,0.02,Wunderground v.1.15,2013-03-18 13:54:00,
2013-03-18 10:00:00,37.9,37.1,30.18,NE,44,0.0,0.0,97,0.00,,,0.02,Wunderground v.1.15,2013-03-18 14:00:00,
2013-03-18 10:06:00,38.0,37.2,30.17,NE,44,0.0,2.0,97,0.00,,,0.02,Wunderground v.1.15,2013-03-18 14:06:00,
2013-03-18 10:12:00,38.0,37.2,30.16,NE,46,1.0,1.0,97,0.00,,,0.02,Wunderground v.1.15,2013-03-18 14:12:00,
2013-03-18 10:18:00,38.2,37.4,30.15,NE,49,1.0,3.0,97,0.00,,,0.02,Wunderground v.1.15,2013-03-18 14:18:00,
2013-03-18 10:24:00,38.2,37.4,30.15,SSE,151,1.0,3.0,97,0.00,,,0.02,Wunderground v.1.15,2013-03-18 14:24:00,
2013-03-18 10:30:00,38.3,37.5,30.15,ESE,121,1.0,1.0,97,0.00,,,0.02,Wunderground v.1.15,2013-03-18 14:30:00,
2013-03-18 10:36:00,38.4,37.6,30.14,ESE,119,1.0,3.0,97,0.00,,,0.02,Wunderground v.1.15,2013-03-18 14:36:00,
2013-03-18 10:42:00,38.5,37.7,30.13,East,85,1.0,3.0,97,0.00,,,0.02,Wunderground v.1.15,2013-03-18 14:42:00,
2013-03-18 10:48:00,38.6,37.8,30.13,ESE,119,1.0,3.0,97,0.00,,,0.02,Wunderground v.1.15,2013-03-18 14:48:00,
2013-03-18 10:54:00,38.6,37.8,30.14,ENE,69,1.0,3.0,97,0.00,,,0.02,Wunderground v.1.15,2013-03-18 14:54:00,
2013-03-18 11:00:00,38.7,37.9,30.13,East,84,1.0,1.0,97,0.00,,,0.02,Wunderground v.1.15,2013-03-18 15:00:00,
2013-03-18 11:06:00,38.8,38.0,30.13,NE,46,1.0,2.0,97,0.00,,,0.02,Wunderground v.1.15,2013-03-18 15:06:00,
2013-03-18 11:12:00,38.9,38.1,30.14,NE,47,1.0,1.0,97,0.00,,,0.02,Wunderground v.1.15,2013-03-18 15:12:00,
2013-03-18 11:18:00,39.0,38.2,30.13,NE,56,0.0,1.0,97,0.00,,,0.02,Wunderground v.1.15,2013-03-18 15:18:00,
2013-03-18 11:24:00,39.1,38.3,30.13,NNE,33,1.0,1.0,97,0.00,,,0.02,Wunderground v.1.15,2013-03-18 15:24:00,
2013-03-18 11:30:00,39.2,38.4,30.13,North,5,1.0,2.0,97,0.00,,,0.02,Wunderground v.1.15,2013-03-18 15:30:00,
2013-03-18 11:36:00,39.2,38.4,30.13,North,5,1.0,2.0,97,0.00,,,0.02,Wunderground v.1.15,2013-03-18 15:36:00,
2013-03-18 11:42:00,39.3,38.5,30.13,North,360,1.0,3.0,97,0.00,,,0.02,Wunderground v.1.15,2013-03-18 15:42:00,
2013-03-18 11:48:00,39.4,38.6,30.13,North,11,1.0,3.0,97,0.00,,,0.02,Wunderground v.1.15,2013-03-18 15:48:00,
2013-03-18 11:54:00,39.6,38.8,30.13,NE,54,1.0,2.0,97,0.00,,,0.02,Wunderground v.1.15,2013-03-18 15:54:00,
2013-03-18 12:00:00,39.7,38.9,30.13,North,355,1.0,1.0,97,0.00,,,0.02,Wunderground v.1.15,2013-03-18 16:00:00,
2013-03-18 12:06:00,39.8,39.0,30.13,North,5,1.0,1.0,97,0.00,,,0.02,Wunderground v.1.15,2013-03-18 16:06:00,
2013-03-18 12:12:00,39.8,39.0,30.13,North,5,0.0,1.0,97,0.00,,,0.02,Wunderground v.1.15,2013-03-18 16:12:00,
2013-03-18 12:18:00,40.0,39.2,30.13,North,5,0.0,1.0,97,0.00,,,0.02,Wunderground v.1.15,2013-03-18 16:18:00,
2013-03-18 12:24:00,40.1,39.3,30.13,North,5,0.0,0.0,97,0.00,,,0.02,Wunderground v.1.15,2013-03-18 16:24:00,
2013-03-18 12:30:00,40.1,39.3,30.13,ENE,64,1.0,1.0,97,0.00,,,0.02,Wunderground v.1.15,2013-03-18 16:30:00,
2013-03-18 12:36:00,40.2,39.4,30.12,ENE,64,0.0,1.0,97,0.00,,,0.02,Wunderground v.1.15,2013-03-18 16:36:00,
2013-03-18 12:42:00,40.2,39.4,30.12,ENE,64,0.0,1.0,97,0.00,,,0.02,Wunderground v.1.15,2013-03-18 16:42:00,
2013-03-18 12:48:00,40.3,39.5,30.11,ENE,64,0.0,1.0,97,0.00,,,0.02,Wunderground v.1.15,2013-03-18 16:48:00,
2013-03-18 12:54:00,40.3,39.5,30.11,ENE,64,1.0,1.0,97,0.00,,,0.02,Wunderground v.1.15,2013-03-18 16:54:00,
2013-03-18 13:00:00,40.4,39.6,30.10,ENE,64,0.0,1.0,97,0.00,,,0.02,Wunderground v.1.15,2013-03-18 17:00:00,
2013-03-18 13:06:00,40.6,39.8,30.10,ENE,64,0.0,1.0,97,0.00,,,0.02,Wunderground v.1.15,2013-03-18 17:06:00,
2013-03-18 13:12:00,40.7,39.9,30.10,ENE,61,0.0,1.0,97,0.00,,,0.02,Wunderground v.1.15,2013-03-18 17:12:00,
2013-03-18 13:18:00,40.8,40.0,30.10,ENE,61,0.0,1.0,97,0.00,,,0.02,Wunderground v.1.15,2013-03-18 17:18:00,
2013-03-18 13:24:00,40.8,40.0,30.10,ENE,61,0.0,1.0,97,0.00,,,0.02,Wunderground v.1.15,2013-03-18 17:24:00,
2013-03-18 13:30:00,40.8,40.0,30.09,ENE,61,0.0,0.0,97,0.00,,,0.02,Wunderground v.1.15,2013-03-18 17:30:00,
2013-03-18 13:36:00,40.9,40.1,30.10,ENE,63,0.0,0.0,97,0.00,,,0.02,Wunderground v.1.15,2013-03-18 17:36:00,
2013-03-18 13:42:00,41.0,40.2,30.10,ENE,63,0.0,1.0,97,0.00,,,0.02,Wunderground v.1.15,2013-03-18 17:42:00,
2013-03-18 13:48:00,41.0,40.2,30.10,ENE,65,0.0,1.0,97,0.00,,,0.02,Wunderground v.1.15,2013-03-18 17:48:00,
2013-03-18 13:54:00,41.0,40.2,30.09,ENE,65,0.0,0.0,97,0.00,,,0.02,Wunderground v.1.15,2013-03-18 17:54:00,
2013-03-18 14:00:00,41.1,40.3,30.09,ENE,65,0.0,1.0,97,0.00,,,0.02,Wunderground v.1.15,2013-03-18 18:00:00,
2013-03-18 14:06:00,41.1,40.3,30.08,ENE,65,0.0,1.0,97,0.00,,,0.02,Wunderground v.1.15,2013-03-18 18:06:00,
2013-03-18 14:12:00,41.2,40.4,30.08,ENE,65,0.0,1.0,97,0.00,,,0.02,Wunderground v.1.15,2013-03-18 18:12:00,
2013-03-18 14:18:00,41.3,40.5,30.07,ENE,65,0.0,1.0,97,0.00,,,0.02,Wunderground v.1.15,2013-03-18 18:18:00,
2013-03-18 14:24:00,41.3,40.5,30.06,ENE,65,0.0,1.0,97,0.00,,,0.02,Wunderground v.1.15,2013-03-18 18:24:00,
2013-03-18 14:30:00,41.4,40.6,30.06,ENE,65,0.0,0.0,97,0.00,,,0.02,Wunderground v.1.15,2013-03-18 18:30:00,
2013-03-18 14:36:00,41.6,40.8,30.05,ENE,65,0.0,1.0,97,0.00,,,0.02,Wunderground v.1.15,2013-03-18 18:36:00,
2013-03-18 14:42:00,41.6,40.8,30.04,ENE,65,0.0,0.0,97,0.00,,,0.02,Wunderground v.1.15,2013-03-18 18:42:00,
2013-03-18 14:48:00,41.7,40.9,30.03,ENE,65,0.0,0.0,97,0.00,,,0.02,Wunderground v.1.15,2013-03-18 18:48:00,
2013-03-18 14:54:00,41.9,41.1,30.03,ENE,73,0.0,2.0,97,0.00,,,0.02,Wunderground v.1.15,2013-03-18 18:54:00,
2013-03-18 15:00:00,41.9,41.1,30.03,East,101,0.0,0.0,97,0.00,,,0.02,Wunderground v.1.15,2013-03-18 19:00:00,
2013-03-18 15:06:00,42.0,41.2,30.02,East,101,0.0,0.0,97,0.00,,,0.02,Wunderground v.1.15,2013-03-18 19:06:00,
2013-03-18 15:12:00,42.1,41.3,30.02,East,101,0.0,0.0,97,0.00,,,0.02,Wunderground v.1.15,2013-03-18 19:12:00,
2013-03-18 15:18:00,42.1,41.3,30.02,NNE,16,0.0,2.0,97,0.00,,,0.02,Wunderground v.1.15,2013-03-18 19:18:00,
2013-03-18 15:24:00,42.1,41.3,30.02,NNE,16,1.0,1.0,97,0.00,,,0.02,Wunderground v.1.15,2013-03-18 19:24:00,
2013-03-18 15:30:00,42.1,41.3,30.01,NNE,16,0.0,0.0,97,0.00,,,0.02,Wunderground v.1.15,2013-03-18 19:30:00,
2013-03-18 15:36:00,42.2,41.4,30.00,NNE,16,0.0,0.0,97,0.00,,,0.02,Wunderground v.1.15,2013-03-18 19:36:00,
2013-03-18 15:42:00,42.3,41.5,30.00,NNE,16,0.0,0.0,97,0.00,,,0.02,Wunderground v.1.15,2013-03-18 19:42:00,
2013-03-18 15:48:00,42.4,41.6,30.00,NNE,16,0.0,0.0,97,0.00,,,0.02,Wunderground v.1.15,2013-03-18 19:48:00,
2013-03-18 15:54:00,42.4,41.6,30.00,NNE,16,0.0,0.0,97,0.00,,,0.02,Wunderground v.1.15,2013-03-18 19:54:00,
2013-03-18 16:00:00,42.4,41.6,30.00,NNE,18,0.0,2.0,97,0.00,,,0.02,Wunderground v.1.15,2013-03-18 20:00:00,
2013-03-18 16:06:00,42.4,41.6,30.00,NNE,18,1.0,2.0,97,0.00,,,0.02,Wunderground v.1.15,2013-03-18 20:06:00,
2013-03-18 16:12:00,42.4,41.6,30.00,NNE,18,0.0,0.0,97,0.00,,,0.02,Wunderground v.1.15,2013-03-18 20:12:00,
2013-03-18 16:18:00,42.3,41.5,30.00,North,360,0.0,1.0,97,0.00,,,0.02,Wunderground v.1.15,2013-03-18 20:18:00,
2013-03-18 16:24:00,42.4,41.6,30.00,North,355,0.0,1.0,97,0.00,,,0.02,Wunderground v.1.15,2013-03-18 20:24:00,
2013-03-18 16:30:00,42.4,41.6,30.00,North,355,0.0,1.0,97,0.00,,,0.02,Wunderground v.1.15,2013-03-18 20:30:00,
2013-03-18 16:38:00,42.4,41.6,29.99,North,355,0.0,1.0,97,0.00,,,0.02,Wunderground v.1.15,2013-03-18 20:38:00,
2013-03-18 16:44:00,42.4,41.6,29.99,ENE,63,0.0,0.0,97,0.00,,,0.02,Wunderground v.1.15,2013-03-18 20:44:00,
2013-03-18 16:50:00,42.4,41.6,29.99,ENE,63,0.0,0.0,97,0.00,,,0.02,Wunderground v.1.15,2013-03-18 20:50:00,
2013-03-18 16:56:00,42.5,41.7,29.99,ENE,63,0.0,1.0,97,0.00,,,0.02,Wunderground v.1.15,2013-03-18 20:56:00,
2013-03-18 17:02:00,42.5,41.7,29.98,ENE,63,0.0,0.0,97,0.00,,,0.02,Wunderground v.1.15,2013-03-18 21:02:00,
2013-03-18 17:08:00,42.5,41.7,29.99,ENE,63,0.0,0.0,97,0.00,,,0.02,Wunderground v.1.15,2013-03-18 21:08:00,
2013-03-18 17:14:00,42.6,41.8,29.98,ENE,63,0.0,2.0,97,0.00,,,0.02,Wunderground v.1.15,2013-03-18 21:14:00,
2013-03-18 17:20:00,42.5,41.7,29.98,ENE,63,0.0,0.0,97,0.00,,,0.02,Wunderground v.1.15,2013-03-18 21:20:00,
2013-03-18 17:26:00,42.6,41.8,29.99,ENE,63,0.0,0.0,97,0.00,,,0.02,Wunderground v.1.15,2013-03-18 21:26:00,
2013-03-18 17:32:00,42.6,41.8,29.99,ENE,59,0.0,1.0,97,0.00,,,0.02,Wunderground v.1.15,2013-03-18 21:32:00,
2013-03-18 17:38:00,42.5,41.7,29.98,NE,39,1.0,1.0,97,0.00,,,0.02,Wunderground v.1.15,2013-03-18 21:38:00,
2013-03-18 17:44:00,42.5,41.7,29.98,NE,39,0.0,1.0,97,0.00,,,0.02,Wunderground v.1.15,2013-03-18 21:44:00,
2013-03-18 17:50:00,42.5,41.7,29.97,NE,51,0.0,0.0,97,0.00,,,0.02,Wunderground v.1.15,2013-03-18 21:50:00,
2013-03-18 17:56:00,42.5,41.7,29.97,NE,51,0.0,0.0,97,0.00,,,0.02,Wunderground v.1.15,2013-03-18 21:56:00,
2013-03-18 18:02:00,42.5,41.7,29.97,NE,51,0.0,0.0,97,0.00,,,0.02,Wunderground v.1.15,2013-03-18 22:02:00,
2013-03-18 18:08:00,42.5,41.7,29.97,NE,51,0.0,0.0,97,0.00,,,0.02,Wunderground v.1.15,2013-03-18 22:08:00,
2013-03-18 18:14:00,42.5,42.0,29.98,NE,51,0.0,0.0,98,0.00,,,0.02,Wunderground v.1.15,2013-03-18 22:14:00,
2013-03-18 18:20:00,42.5,42.0,29.98,NE,51,0.0,0.0,98,0.00,,,0.02,Wunderground v.1.15,2013-03-18 22:20:00,
2013-03-18 18:26:00,42.5,42.0,29.98,NE,51,0.0,0.0,98,0.00,,,0.02,Wunderground v.1.15,2013-03-18 22:26:00,
2013-03-18 18:32:00,42.5,42.0,29.99,NE,51,0.0,0.0,98,0.00,,,0.02,Wunderground v.1.15,2013-03-18 22:32:00,
2013-03-18 18:38:00,42.5,42.0,29.97,NE,51,1.0,2.0,98,0.00,,,0.02,Wunderground v.1.15,2013-03-18 22:38:00,
2013-03-18 18:44:00,42.4,41.9,29.96,NE,51,1.0,1.0,98,0.00,,,0.02,Wunderground v.1.15,2013-03-18 22:44:00,
2013-03-18 18:50:00,42.4,41.9,29.96,West,279,0.0,0.0,98,0.00,,,0.02,Wunderground v.1.15,2013-03-18 22:50:00,
2013-03-18 18:56:00,42.3,41.8,29.96,West,280,0.0,0.0,98,0.00,,,0.02,Wunderground v.1.15,2013-03-18 22:56:00,
2013-03-18 19:02:00,42.3,41.8,29.95,West,280,0.0,1.0,98,0.00,,,0.02,Wunderground v.1.15,2013-03-18 23:02:00,
2013-03-18 19:08:00,42.3,41.8,29.96,West,280,0.0,1.0,98,0.00,,,0.02,Wunderground v.1.15,2013-03-18 23:08:00,
2013-03-18 19:14:00,42.3,41.8,29.95,NW,308,0.0,1.0,98,0.00,,,0.02,Wunderground v.1.15,2013-03-18 23:14:00,
2013-03-18 19:20:00,42.3,41.8,29.96,NW,308,0.0,0.0,98,0.00,,,0.02,Wunderground v.1.15,2013-03-18 23:20:00,
2013-03-18 19:26:00,42.3,41.8,29.97,NW,308,0.0,1.0,98,0.00,,,0.02,Wunderground v.1.15,2013-03-18 23:26:00,
2013-03-18 19:32:00,42.2,41.7,29.96,NW,308,1.0,1.0,98,0.00,,,0.02,Wunderground v.1.15,2013-03-18 23:32:00,
2013-03-18 19:38:00,42.2,41.7,29.96,North,5,0.0,1.0,98,0.00,,,0.02,Wunderground v.1.15,2013-03-18 23:38:00,
2013-03-18 19:44:00,42.2,41.7,29.95,NNE,28,1.0,2.0,98,0.00,,,0.02,Wunderground v.1.15,2013-03-18 23:44:00,
2013-03-18 19:50:00,42.1,41.6,29.95,NNE,28,1.0,2.0,98,0.00,,,0.02,Wunderground v.1.15,2013-03-18 23:50:00,
2013-03-18 19:56:00,42.1,41.6,29.95,NNE,28,1.0,2.0,98,0.00,,,0.02,Wunderground v.1.15,2013-03-18 23:56:00,
2013-03-18 20:02:00,42.0,41.5,29.95,North,355,1.0,1.0,98,0.00,,,0.02,Wunderground v.1.15,2013-03-19 00:02:00,
2013-03-18 20:08:00,42.0,41.5,29.94,NE,43,1.0,1.0,98,0.00,,,0.02,Wunderground v.1.15,2013-03-19 00:08:00,
2013-03-18 20:14:00,42.0,41.5,29.94,NNE,32,1.0,2.0,98,0.00,,,0.02,Wunderground v.1.15,2013-03-19 00:14:00,
2013-03-18 20:20:00,41.9,41.4,29.93,NNE,31,1.0,1.0,98,0.00,,,0.02,Wunderground v.1.15,2013-03-19 00:20:00,
2013-03-18 20:26:00,42.0,41.5,29.95,NNE,21,0.0,2.0,98,0.00,,,0.02,Wunderground v.1.15,2013-03-19 00:26:00,
2013-03-18 20:32:00,41.9,41.6,29.94,NNE,21,0.0,0.0,99,0.00,,,0.02,Wunderground v.1.15,2013-03-19 00:32:00,
2013-03-18 20:38:00,42.0,41.7,29.95,NNE,21,0.0,1.0,99,0.00,,,0.02,Wunderground v.1.15,2013-03-19 00:38:00,
2013-03-18 20:44:00,42.0,41.7,29.96,North,5,1.0,1.0,99,0.00,,,0.02,Wunderground v.1.15,2013-03-19 00:44:00,
2013-03-18 20:50:00,42.0,41.7,29.97,NNE,19,1.0,1.0,99,0.00,,,0.03,Wunderground v.1.15,2013-03-19 00:50:00,
2013-03-18 20:56:00,42.0,41.7,29.98,NNW,329,1.0,3.0,99,0.00,,,0.03,Wunderground v.1.15,2013-03-19 00:56:00,
2013-03-18 21:02:00,42.0,41.7,29.99,NNW,341,1.0,2.0,99,0.00,,,0.03,Wunderground v.1.15,2013-03-19 01:02:00,
2013-03-18 21:08:00,41.8,41.3,30.01,WNW,285,2.0,4.0,98,0.14,,,0.05,Wunderground v.1.15,2013-03-19 01:08:00,
2013-03-18 21:14:00,41.7,41.2,29.99,NE,44,2.0,3.0,98,0.09,,,0.05,Wunderground v.1.15,2013-03-19 01:14:00,
2013-03-18 21:20:00,41.5,41.0,29.96,NNW,334,1.0,1.0,98,0.06,,,0.06,Wunderground v.1.15,2013-03-19 01:20:00,
2013-03-18 21:26:00,41.4,40.9,29.95,NNW,334,0.0,1.0,98,0.08,,,0.07,Wunderground v.1.15,2013-03-19 01:26:00,
2013-03-18 21:32:00,41.3,40.8,29.94,NNW,334,0.0,1.0,98,0.09,,,0.08,Wunderground v.1.15,2013-03-19 01:32:00,
2013-03-18 21:38:00,41.2,40.7,29.95,NNW,334,1.0,2.0,98,0.15,,,0.09,Wunderground v.1.15,2013-03-19 01:38:00,
2013-03-18 21:44:00,41.2,40.7,29.94,NNW,334,0.0,1.0,98,0.14,,,0.10,Wunderground v.1.15,2013-03-19 01:44:00,
2013-03-18 21:50:00,41.1,40.6,29.94,NNW,334,0.0,0.0,98,0.13,,,0.12,Wunderground v.1.15,2013-03-19 01:50:00,
2013-03-18 21:56:00,41.1,40.6,29.94,NNW,334,0.0,0.0,98,0.14,,,0.13,Wunderground v.1.15,2013-03-19 01:56:00,
2013-03-18 22:02:00,41.1,40.6,29.94,NNW,334,0.0,2.0,98,0.14,,,0.15,Wunderground v.1.15,2013-03-19 02:02:00,
2013-03-18 22:08:00,41.0,40.5,29.94,NNW,334,0.0,2.0,98,0.13,,,0.16,Wunderground v.1.15,2013-03-19 02:08:00,
2013-03-18 22:14:00,41.0,40.5,29.94,NNW,334,0.0,1.0,98,0.12,,,0.17,Wunderground v.1.15,2013-03-19 02:14:00,
2013-03-18 22:20:00,40.9,40.4,29.94,NNW,334,1.0,1.0,98,0.10,,,0.18,Wunderground v.1.15,2013-03-19 02:20:00,
2013-03-18 22:26:00,40.8,40.3,29.94,NNW,334,0.0,1.0,98,0.07,,,0.18,Wunderground v.1.15,2013-03-19 02:26:00,
2013-03-18 22:32:00,40.8,40.3,29.94,NNW,335,0.0,0.0,98,0.04,,,0.18,Wunderground v.1.15,2013-03-19 02:32:00,
2013-03-18 22:38:00,40.8,40.3,29.94,NNW,335,0.0,0.0,98,0.00,,,0.18,Wunderground v.1.15,2013-03-19 02:38:00,
2013-03-18 22:44:00,40.7,40.2,29.93,NNW,335,0.0,0.0,98,0.00,,,0.18,Wunderground v.1.15,2013-03-19 02:44:00,
2013-03-18 22:50:00,40.7,40.2,29.91,NNW,335,0.0,0.0,98,0.00,,,0.18,Wunderground v.1.15,2013-03-19 02:50:00,
2013-03-18 22:56:00,40.8,40.5,29.91,NNW,335,0.0,0.0,99,0.00,,,0.18,Wunderground v.1.15,2013-03-19 02:56:00,
2013-03-18 23:02:00,40.7,40.4,29.90,NNW,335,0.0,0.0,99,0.00,,,0.19,Wunderground v.1.15,2013-03-19 03:02:00,
2013-03-18 23:08:00,40.7,40.2,29.89,NNW,335,0.0,0.0,98,0.09,,,0.20,Wunderground v.1.15,2013-03-19 03:08:00,
2013-03-18 23:14:00,40.7,40.2,29.89,NNW,335,0.0,1.0,98,0.07,,,0.20,Wunderground v.1.15,2013-03-19 03:14:00,
2013-03-18 23:20:00,40.7,40.2,29.89,NNW,335,0.0,0.0,98,0.07,,,0.21,Wunderground v.1.15,2013-03-19 03:20:00,
2013-03-18 23:26:00,40.7,40.4,29.87,NNW,335,0.0,0.0,99,0.08,,,0.22,Wunderground v.1.15,2013-03-19 03:26:00,
2013-03-18 23:32:00,40.6,40.3,29.86,NNW,335,1.0,1.0,99,0.05,,,0.22,Wunderground v.1.15,2013-03-19 03:32:00,
2013-03-18 23:38:00,40.6,40.3,29.85,NNW,335,1.0,1.0,99,0.00,,,0.22,Wunderground v.1.15,2013-03-19 03:38:00,
2013-03-18 23:44:00,40.5,40.2,29.84,West,271,1.0,1.0,99,0.00,,,0.22,Wunderground v.1.15,2013-03-19 03:44:00,
2013-03-18 23:50:00,40.5,40.2,29.83,SSW,207,1.0,1.0,99,0.00,,,0.22,Wunderground v.1.15,2013-03-19 03:50:00,
2013-03-18 23:56:00,40.5,40.2,29.83,South,171,1.0,1.0,99,0.00,,,0.22,Wunderground v.1.15,2013-03-19 03:56:00,